This is the latest recevied weather packets stored in our database for station/object KC8PTQ. If no packets are shown the sender has not sent any weather packets the latest 10 day(s).
| Time | Temp. | Humidity | Pressure | Rain* | Wind** | Luminosity | Snow |
|---|---|---|---|---|---|---|---|
| 1778128291 | 6.67° C | 89% | 1014.9 hPa | 0 mm | - | 0 W/m² | - |
| 1778127986 | 6.67° C | 88% | 1014.9 hPa | 0 mm | - | 0 W/m² | - |
| 1778127681 | 6.67° C | 88% | 1015 hPa | 0 mm | - | 0 W/m² | - |
| 1778127379 | 7.22° C | 89% | 1014.8 hPa | 0 mm | - | 0 W/m² | - |
| 1778127076 | 7.22° C | 89% | 1015 hPa | 0 mm | - | 0 W/m² | - |
| 1778126773 | 6.67° C | 86% | 1015.1 hPa | 0 mm | - | 0 W/m² | - |
| 1778126469 | 6.67° C | 86% | 1014.9 hPa | 0 mm | - | 0 W/m² | - |
| 1778126165 | 6.67° C | 86% | 1015.2 hPa | 0 mm | - | 0 W/m² | - |
| 1778125861 | 6.67° C | 86% | 1015.1 hPa | 0 mm | - | 0 W/m² | - |
| 1778125558 | 6.67° C | 86% | 1015.3 hPa | 0 mm | - | 0 W/m² | - |
| 1778125256 | 6.67° C | 87% | 1015.2 hPa | 0 mm | - | 0 W/m² | - |
| 1778124954 | 6.67° C | 87% | 1015.3 hPa | 0 mm | - | 0 W/m² | - |
| 1778124650 | 6.67° C | 87% | 1015.4 hPa | 0 mm | - | 0 W/m² | - |
| 1778124347 | 6.67° C | 86% | 1015.3 hPa | 0 mm | - | 0 W/m² | - |
| 1778124044 | 6.67° C | 88% | 1015.5 hPa | 0 mm | - | 0 W/m² | - |
| 1778123740 | 6.67° C | 87% | 1015.7 hPa | 0 mm | - | 0 W/m² | - |
| 1778123437 | 6.67° C | 85% | 1015.7 hPa | 0 mm | - | 0 W/m² | - |
| 1778123134 | 7.22° C | 84% | 1015.5 hPa | 0 mm | - | 0 W/m² | - |
| 1778122832 | 7.22° C | 83% | 1015.4 hPa | 0 mm | - | 0 W/m² | - |
| 1778122528 | 7.22° C | 83% | 1015.6 hPa | 0 mm | - | 0 W/m² | - |
| 1778122226 | 7.22° C | 83% | 1015.5 hPa | 0 mm | - | 0 W/m² | - |
| 1778121924 | 7.78° C | 80% | 1015.3 hPa | 0 mm | - | 0 W/m² | - |
| 1778121620 | 7.78° C | 81% | 1015.3 hPa | 0 mm | - | 0 W/m² | - |
| 1778121317 | 7.78° C | 79% | 1015.2 hPa | 0 mm | - | 0 W/m² | - |
| 1778121015 | 7.78° C | 78% | 1015.2 hPa | 0 mm | - | 0 W/m² | - |
* Rain latest hour (hover to see other rain measurements)
** Current wind speed in m/s (hover to see current wind gust speed)